Limon, CO

8:59 AM MDT on June 28, 2017 (GMT -0600)
Limon Municipal

Weather History for KLIC - January, 2013

Change the Weather History Date:

Saturday, January 12, 2013

  Actual Average Record
Temperature  
Mean Temperature 1 °F -  
Max Temperature 11 °F - 59 °F (2001)
Min Temperature -10 °F - -15 °F (1997)
Degree Days  
Heating Degree Days 64    
Month to date heating degree days 544  
Cooling Degree Days 0    
Month to date cooling degree days 0  
Moisture  
Dew Point -3 °F    
Average Humidity 83    
Maximum Humidity 92    
Minimum Humidity 61    
Precipitation  
Precipitation 0.09 in - 0.09 in (2013)
Month to date precipitation 0.14  
Year to date precipitation 0.14  
Sea Level Pressure  
Sea Level Pressure 30.06 in    
Wind  
Wind Speed 4 mph (NNW)    
Max Wind Speed 14 mph    
Max Gust Speed 16 mph    
Visibility 10 miles    
Events Snow    
T = Trace of Precipitation, MM = Missing Value Source: NWS Daily Summary

Daily Weather History Graph

Daily Weather History Graph

Search for Another Location

Airport or City:

Trip Planner

Search our weather history database for the weather conditions in past years. The results will help you decide how hot, cold, wet, or windy it might be!

Date:

Astronomy

Jan. 12, 2013 Rise Set
Actual Time 7:13 AM MST 4:53 PM MST
Civil Twilight 6:44 AM MST 5:22 PM MST
Nautical Twilight 6:10 AM MST 5:55 PM MST
Astronomical Twilight 5:38 AM MST 6:27 PM MST
Moon 7:34 AM MST (1/12) 6:23 PM MST (1/12)
Length of Visible Light 10h 38m
Length of Day
9h 39m
New Moon, 1% of the Moon is Illuminated
Jan 12
New Moon
Jan 18
First Quarter
Jan 26
Full
Feb 3
Last Quarter
Feb 10
New

Hourly Weather History & Observations

Time (MST) Temp. Windchill Dew Point Humidity Pressure Visibility Wind Dir Wind Speed Gust Speed Precip Events Conditions
12:55 AM -4.0 °F -12.4 °F -6.0 °F 91% 29.95 in 10.0 mi North 3.5 mph - N/A   Overcast
1:09 AM -4.0 °F -12.4 °F -5.8 °F 92% 29.79 in 10.0 mi NNW 3.5 mph - N/A   Overcast
1:30 AM -2.2 °F - -5.8 °F 85% 29.80 in 10.0 mi Calm Calm - N/A   Overcast
1:45 AM -2.2 °F -10.4 °F -5.8 °F 85% 29.80 in 10.0 mi North 3.5 mph - N/A   Overcast
1:55 AM -0.9 °F - -2.9 °F 91% 29.98 in 10.0 mi Calm Calm - N/A   Overcast
2:32 AM 1.4 °F -8.3 °F -0.4 °F 92% 29.80 in 10.0 mi NW 4.6 mph - N/A   Overcast
2:55 AM 1.9 °F - -0.9 °F 88% 29.98 in 10.0 mi Calm Calm - N/A   Overcast
3:55 AM 1.9 °F - -0.0 °F 91% 29.98 in 10.0 mi Calm Calm - N/A   Overcast
4:04 AM 3.2 °F - 1.4 °F 92% 29.79 in 10.0 mi Calm Calm - N/A   Overcast
4:55 AM 3.0 °F - 1.0 °F 91% 29.99 in 10.0 mi Calm Calm - N/A   Overcast
5:55 AM 6.1 °F -0.9 °F 3.9 °F 91% 30.02 in 10.0 mi SE 3.5 mph - N/A   Overcast
6:46 AM 6.8 °F -0.1 °F 5.0 °F 92% 29.87 in 9.0 mi West 3.5 mph - 0.00 in   Overcast
6:55 AM 6.1 °F -2.8 °F 3.9 °F 91% 30.08 in 10.0 mi West 4.6 mph - 0.00 in   Overcast
7:13 AM 6.8 °F -2.0 °F 3.2 °F 85% 29.89 in 9.0 mi West 4.6 mph - 0.00 in Snow Light Snow
7:55 AM 7.0 °F - 3.9 °F 87% 30.15 in 10.0 mi Calm Calm - 0.00 in   Overcast
8:27 AM 1.4 °F -11.3 °F -2.2 °F 85% 29.93 in 10.0 mi NNE 6.9 mph - N/A   Scattered Clouds
8:55 AM 3.9 °F -5.3 °F -0.0 °F 84% 30.21 in 10.0 mi North 4.6 mph - N/A   Clear
9:55 AM 8.1 °F -7.0 °F 1.0 °F 73% 30.22 in 10.0 mi North 11.5 mph - N/A   Clear
10:55 AM 8.1 °F -7.7 °F -0.0 °F 70% 30.22 in 10.0 mi North 12.7 mph - 0.09 in   Clear
11:55 AM 10.0 °F -3.7 °F -0.9 °F 61% 30.16 in 10.0 mi NNW 10.4 mph - N/A   Clear
12:55 PM 9.0 °F -5.9 °F -2.0 °F 61% 30.15 in 10.0 mi North 11.5 mph - N/A   Clear
1:55 PM 9.0 °F -3.2 °F -0.0 °F 67% 30.14 in 10.0 mi NNW 8.1 mph - N/A   Clear
2:55 PM 10.0 °F -3.7 °F -0.0 °F 64% 30.13 in 10.0 mi North 10.4 mph - N/A   Clear
3:55 PM 7.0 °F -4.5 °F -0.9 °F 70% 30.15 in 10.0 mi NNW 6.9 mph - N/A   Clear
4:55 PM -2.0 °F -13.9 °F -6.0 °F 83% 30.21 in 10.0 mi NW 5.8 mph - N/A   Clear
5:55 PM -7.1 °F -18.1 °F -9.9 °F 87% 30.23 in 10.0 mi NNW 4.6 mph - N/A   Clear
6:55 PM -9.9 °F -21.5 °F -13.0 °F 86% 30.24 in 10.0 mi NNW 4.6 mph - N/A   Clear
7:55 PM -6.0 °F -18.6 °F -9.9 °F 83% 30.22 in 10.0 mi WNW 5.8 mph - N/A   Clear
8:55 PM -9.0 °F - -13.0 °F 83% 30.26 in 10.0 mi Calm Calm - N/A   Partly Cloudy
9:55 PM -2.9 °F -16.5 °F -7.1 °F 82% 30.23 in 10.0 mi West 6.9 mph - N/A   Overcast
10:55 PM -0.0 °F -7.9 °F -4.0 °F 83% 30.22 in 10.0 mi NW 3.5 mph - N/A   Overcast
11:55 PM -2.9 °F - -7.1 °F 82% 30.21 in 10.0 mi Calm Calm - N/A   Overcast